[[{"header":{"parameterUnit":"m.s-1","parameterCategory":1,"la1":30.2991,"la2":30.254,"lo1":-89.0895,"lo2":-89.0444,"dx":0.0017,"dy":0.0017,"nx":28,"ny":28,"refTime":"2022-12-15T09:00:00:Z","depth":0,"parameterNumber":2,"parameterNumberName":"U-component_of_WINDS"},"data":[0,0,0,0,0,0,0,0,0,0,0,0,0,0,0,0,0,0,0,0,0,0,0,0,0,0,0,0,0,0,0,0,0,0,0,0,0,0,0,0,0,0,0,0,0,0,0,0,0,0,0,0,0,0,0,0,0,0,0.3537,0.3537,0,0.3522,0.3522,0.3522,0.3519,0.3519,0.3519,0.3519,0.3502,0.3502,0.3501,0,0,0,0,0,0,0,0,0,0,0,0,0,0.356,0.356,0.3537,0.3537,0.3536,0.3522,0.3522,0.3522,0.3519,0.3519,0.3519,0.3519,0.3502,0.3502,0.3501,0,0,0,0,0,0,0,0,0,0,0,0,0,0.3548,0.356,0.3537,0.3533,0.3533,0.3522,0.3522,0.3522,0.3519,0.3519,0.3519,0.3519,0.3503,0.3502,0.3501,0.3492,0,0,0.3498,0.3498,0,0,0,0,0,0,0,0,0.3549,0.3547,0.3534,0.3533,0.3533,0.3522,0.3524,0.3512,0.3519,0.3524,0.3519,0.3519,0.3509,0.3507,0.3504,0.3491,0.3491,0.3498,0.3498,0.3497,0.3497,0,0,0,0,0,0,0,0.355,0.3548,0.3531,0.3534,0.3533,0.3532,0.353,0.3522,0.3515,0.3524,0.3523,0.3522,0.3508,0.3505,0.3504,0.349,0.3498,0.3498,0.3497,0.3497,0.3468,0.3468,0,0,0,0,0,0,0.3551,0.3549,0.3531,0.353,0.3542,0.3531,0.3529,0.3526,0.3516,0.3514,0.3522,0.3522,0.3506,0.3505,0.3503,0.3491,0.3497,0.3497,0.3496,0.3469,0.3468,0.3468,0,0,0,0,0,0,0.3552,0.355,0.3532,0.3539,0.3537,0.3531,0.3526,0.3525,0.3522,0.3514,0.3513,0.3519,0.3506,0.3504,0.3495,0.3491,0.3496,0.3495,0.3469,0.3468,0.3468,0.3468,0,0,0,0,0,0,0.3553,0.355,0.3547,0.3539,0.3537,0.3524,0.3526,0.3525,0.3521,0.352,0.3512,0.351,0.3506,0.3496,0.3494,0.349,0.3495,0.3469,0.3469,0.3468,0.3468,0.3468,0.3467,0,0,0,0,0,0.3554,0.3548,0.3547,0.3545,0.3533,0.3524,0.3523,0.3519,0.352,0.3517,0.3512,0.3511,0.3492,0.3495,0.3493,0.3488,0.3469,0.3469,0.3468,0.3469,0.3468,0.3467,0,0,0,0,0,0,0.3555,0.3547,0.3546,0.3537,0.3532,0.3524,0.3519,0.3518,0.3511,0.3511,0.3506,0.3504,0.3495,0.3491,0.3495,0.3478,0.348,0.3479,0.3482,0.3481,0.348,0.3481,0.3494,0,0,0,0,0,0.3554,0.3548,0.3541,0.3534,0.3532,0.3526,0.3522,0.352,0.3513,0.351,0.3505,0.3498,0.349,0.3485,0.3478,0.3468,0.3465,0.3463,0.3463,0.3462,0.3461,0.3455,0.3453,0.3466,0.3466,0.3466,0,0,0.3552,0.3547,0.3544,0.3534,0.353,0.3523,0.3524,0.3517,0.3512,0.3509,0.35,0.3495,0.3487,0.3477,0.3472,0.3473,0.3457,0.3462,0.3461,0.3461,0.3454,0.3453,0.3452,0.3466,0.3466,0.3466,0,0,0.3546,0.3542,0.3536,0.3531,0.3524,0.352,0.3518,0.3511,0.3508,0.3498,0.3496,0.3489,0.3477,0.3471,0.3466,0.3457,0.3455,0.3455,0.3451,0.3445,0.3444,0.3443,0.3439,0.3437,0.3454,0.3454,0.3454,0,0.3545,0.3535,0.3532,0.3525,0.3521,0.3519,0.3511,0.3507,0.3497,0.3494,0.3495,0.3479,0.3473,0.3461,0.3459,0.3456,0.3453,0.3455,0.3444,0.3443,0.3442,0.3438,0.3437,0.3454,0.3454,0.3454,0.3454,0,0.3534,0.3527,0.3523,0.3514,0.3509,0.3502,0.3497,0.3492,0.349,0.3486,0.3476,0.3469,0.346,0.3457,0.3455,0.3445,0.3445,0.3445,0.3447,0.3441,0.3437,0.3436,0.3454,0.3454,0.3454,0.3454,0,0,0.3528,0.3517,0.3516,0.3511,0.3503,0.3497,0.349,0.3481,0.3477,0.347,0.3463,0.3453,0.3452,0.3447,0.3444,0.3439,0.3431,0.3439,0.3439,0.3437,0.3418,0.3417,0.3415,0.343,0.3429,0.3429,0.3418,0,0.352,0.3507,0.3504,0.3492,0.3486,0.3483,0.3477,0.347,0.3466,0.3459,0.3454,0.3446,0.3447,0.3444,0.3439,0.3433,0.3426,0.3434,0.3422,0.3422,0.3423,0.3413,0.3413,0.3403,0.3416,0.3416,0.3416,0,0.3509,0.3502,0.3491,0.3483,0.348,0.3474,0.3465,0.3459,0.3452,0.3449,0.3443,0.344,0.3431,0.3434,0.3421,0.3426,0.3421,0.3417,0.3417,0.3415,0.3418,0.341,0.3399,0.3398,0.3414,0.3414,0.3414,0,0.3505,0.3493,0.3484,0.3481,0.3471,0.3467,0.3463,0.3456,0.345,0.3443,0.3439,0.3431,0.3426,0.3419,0.3413,0.3416,0.34,0.3403,0.3397,0.3397,0.3393,0.3393,0.338,0.3391,0.3391,0.3391,0.3391,0,0.3496,0.3488,0.3482,0.3477,0.3468,0.3464,0.3455,0.3451,0.3444,0.3437,0.3434,0.3428,0.3421,0.3414,0.3409,0.3399,0.3397,0.3393,0.3392,0.3393,0.3393,0.3389,0.3389,0.3391,0.3391,0.3391,0.3391,0,0.349,0.3485,0.3475,0.3467,0.3465,0.3459,0.3451,0.3445,0.3441,0.3432,0.343,0.3423,0.3413,0.3407,0.3395,0.3392,0.338,0.338,0.3383,0.3382,0.3376,0.3376,0.3359,0.3356,0.337,0.337,0.337,0,0.3484,0.3478,0.347,0.3465,0.3461,0.3453,0.3448,0.3443,0.3438,0.3428,0.3423,0.3414,0.3406,0.3391,0.3384,0.3374,0.3373,0.3368,0.3371,0.3372,0.3372,0.3372,0.3371,0.3367,0.3367,0.3367,0.3366,0,0.3474,0.3472,0.3465,0.3457,0.3451,0.3444,0.3437,0.3434,0.3428,0.3421,0.3412,0.3406,0.3393,0.3384,0.3373,0.3368,0.3366,0.3365,0.3363,0.3364,0.3366,0.3364,0.338,0.3366,0.3366,0.3366,0.3366,0.3366,0.3467,0.3462,0.3455,0.3447,0.3441,0.3435,0.3429,0.3424,0.3416,0.3406,0.3403,0.3393,0.3384,0.3371,0.3365,0.3356,0.3357,0.3354,0.3353,0.3352,0.3352,0.3368,0.3354,0.3354,0.3354,0.3354,0.3354,0,0.3457,0.3452,0.3445,0.3435,0.3429,0.3428,0.342,0.3415,0.3406,0.3398,0.3391,0.3379,0.3369,0.3362,0.3351,0.3346,0.3344,0.3343,0.3343,0.3342,0.3352,0.3355,0.3344,0.3344,0.3344,0.3344,0.3344,0.3344,0.345,0.3441,0.3438,0.3425,0.342,0.341,0.3406,0.3399,0.3393,0.3381,0.3373,0.3368,0.336,0.3349,0.334,0.3338,0.3334,0.3332,0.333,0.334,0.3341,0.3342,0.3344,0.3332,0.3332,0.332,0.332,0.332]},{"header":{"parameterUnit":"m.s-1","parameterCategory":1,"la1":30.2991,"la2":30.254,"lo1":-89.0895,"lo2":-89.0444,"dx":0.0017,"dy":0.0017,"nx":28,"ny":28,"refTime":"2022-12-15T09:00:00:Z","depth":0,"parameterNumber":3,"parameterNumberName":"V-component_of_WINDS"},"data":[0,0,0,0,0,0,0,0,0,0,0,0,0,0,0,0,0,0,0,0,0,0,0,0,0,0,0,0,0,0,0,0,0,0,0,0,0,0,0,0,0,0,0,0,0,0,0,0,0,0,0,0,0,0,0,0,0,0,2.6503,2.6504,0,2.659,2.6591,2.6592,2.6574,2.6573,2.6571,2.657,2.6657,2.666,2.6664,0,0,0,0,0,0,0,0,0,0,0,0,0,2.6315,2.6319,2.6503,2.6504,2.6505,2.659,2.6591,2.6592,2.6575,2.6573,2.6571,2.6569,2.6655,2.666,2.6664,0,0,0,0,0,0,0,0,0,0,0,0,0,2.6399,2.632,2.6502,2.6506,2.6507,2.659,2.6591,2.6593,2.6575,2.6573,2.657,2.6568,2.6654,2.6659,2.6665,2.6748,0,0,2.6682,2.6685,0,0,0,0,0,0,0,0,2.6394,2.6406,2.6505,2.6506,2.6508,2.6569,2.6557,2.6645,2.6576,2.6549,2.657,2.6567,2.6629,2.6637,2.6658,2.6752,2.6756,2.6683,2.6686,2.6689,2.669,0,0,0,0,0,0,0,2.6389,2.6402,2.6537,2.6506,2.6508,2.6502,2.6511,2.6574,2.6601,2.6551,2.655,2.6561,2.6629,2.6653,2.666,2.6757,2.6683,2.6688,2.6691,2.6694,2.692,2.6922,0,0,0,0,0,0,2.6382,2.6397,2.6534,2.654,2.6444,2.6507,2.6518,2.6552,2.6601,2.6606,2.6563,2.656,2.6644,2.6654,2.6663,2.6762,2.6689,2.6694,2.6697,2.6917,2.6921,2.6923,0,0,0,0,0,0,2.6378,2.6394,2.6531,2.6468,2.6485,2.6513,2.6551,2.6555,2.6578,2.661,2.6614,2.6582,2.6643,2.6655,2.6727,2.6764,2.6697,2.6702,2.6914,2.6918,2.6922,2.696,0,0,0,0,0,0,2.6373,2.6393,2.6426,2.6469,2.6489,2.6594,2.6554,2.6558,2.6588,2.6585,2.6629,2.6634,2.6642,2.6718,2.6732,2.6771,2.6706,2.6911,2.6916,2.6921,2.6956,2.6965,2.6973,0,0,0,0,0,2.6366,2.6434,2.6428,2.6445,2.6531,2.6597,2.6608,2.6617,2.6592,2.6624,2.6644,2.6632,2.6758,2.6726,2.6741,2.6782,2.6909,2.6915,2.692,2.6952,2.6963,2.6973,0,0,0,0,0,0,2.6394,2.6439,2.6434,2.6518,2.6553,2.6594,2.6635,2.6629,2.6672,2.6667,2.6675,2.6685,2.6757,2.6777,2.674,2.6864,2.683,2.6839,2.6848,2.6859,2.6868,2.6861,2.6711,0,0,0,0,0,2.641,2.6461,2.6497,2.6567,2.6586,2.6607,2.6636,2.664,2.6677,2.6692,2.6717,2.6752,2.68,2.6831,2.6876,2.6959,2.6966,2.6994,2.7003,2.701,2.7017,2.706,2.7072,2.6943,2.6943,2.6942,0,0,2.6444,2.6475,2.6506,2.6574,2.6602,2.6652,2.662,2.6676,2.6713,2.67,2.6769,2.6788,2.6828,2.6905,2.694,2.6923,2.7055,2.7017,2.7023,2.7026,2.7067,2.7079,2.709,2.6947,2.6946,2.6945,0,0,2.653,2.656,2.662,2.6649,2.6692,2.6705,2.672,2.676,2.6773,2.6842,2.6833,2.6876,2.6958,2.6986,2.7011,2.7105,2.7095,2.712,2.7164,2.7205,2.7215,2.7224,2.7256,2.7267,2.7127,2.7127,2.7127,0,2.6566,2.6643,2.6652,2.6708,2.6736,2.6727,2.6787,2.6814,2.687,2.6889,2.687,2.6971,2.6998,2.7079,2.7102,2.7123,2.7138,2.7114,2.7213,2.7223,2.7231,2.7261,2.7273,2.713,2.713,2.7129,2.7129,0,2.6684,2.6737,2.678,2.6834,2.6868,2.6926,2.6941,2.6974,2.6974,2.6989,2.7058,2.7089,2.7139,2.7159,2.716,2.724,2.7228,2.7212,2.7177,2.7246,2.7274,2.7286,2.7134,2.7133,2.7132,2.7131,0,0,2.6791,2.6847,2.6863,2.6886,2.6932,2.6972,2.7028,2.7078,2.7105,2.7143,2.7188,2.7257,2.7241,2.7269,2.7273,2.7309,2.7378,2.7287,2.7288,2.7301,2.7465,2.7477,2.749,2.7372,2.7374,2.7376,2.7461,0,2.688,2.698,2.6989,2.7078,2.7125,2.7116,2.7164,2.7196,2.7211,2.7253,2.7268,2.7316,2.7293,2.7309,2.7345,2.7362,2.7411,2.7356,2.7413,2.7414,2.7402,2.7505,2.7518,2.7597,2.7473,2.7475,2.7476,0,2.6998,2.7039,2.7133,2.7169,2.719,2.7233,2.7278,2.7318,2.7353,2.7361,2.7392,2.739,2.7445,2.7409,2.7484,2.7446,2.7469,2.7481,2.7485,2.7489,2.7449,2.7511,2.7622,2.7634,2.7494,2.7492,2.7491,0,2.7065,2.7143,2.7209,2.7229,2.7274,2.7304,2.7324,2.7357,2.7385,2.7423,2.7441,2.7486,2.751,2.7543,2.7552,2.7526,2.7626,2.7591,2.7632,2.7632,2.7653,2.7651,2.7768,2.7671,2.767,2.767,2.767,0,2.7163,2.722,2.7239,2.7279,2.7342,2.735,2.7411,2.7429,2.7458,2.75,2.7495,2.7534,2.7544,2.7585,2.7592,2.7651,2.7663,2.7669,2.767,2.7669,2.7668,2.7683,2.7677,2.7673,2.7673,2.7672,2.7671,0,2.7247,2.7263,2.7333,2.7369,2.7379,2.7424,2.7454,2.7491,2.7504,2.7557,2.757,2.7591,2.7638,2.765,2.7707,2.7711,2.7781,2.7777,2.7769,2.7768,2.7808,2.7803,2.7938,2.7955,2.7847,2.7848,2.7849,0,2.7308,2.7352,2.7392,2.742,2.7441,2.7486,2.7515,2.7523,2.7553,2.7595,2.7627,2.7673,2.7711,2.7786,2.7805,2.7847,2.7844,2.7888,2.785,2.7847,2.7842,2.7839,2.7842,2.7895,2.7896,2.7897,2.7898,0,2.7414,2.7419,2.7461,2.7505,2.7539,2.7574,2.7607,2.763,2.7643,2.7676,2.7724,2.7753,2.781,2.7855,2.7897,2.7916,2.7908,2.7909,2.7921,2.7919,2.7912,2.7914,2.7787,2.7906,2.7905,2.7905,2.7904,2.7904,2.7488,2.7525,2.7558,2.7604,2.763,2.766,2.7697,2.7714,2.7755,2.7802,2.7804,2.7856,2.7887,2.7943,2.7964,2.8003,2.7989,2.8006,2.801,2.8014,2.8016,2.7906,2.8011,2.801,2.801,2.801,2.801,0,2.7591,2.7612,2.7654,2.77,2.7736,2.7726,2.7761,2.7791,2.7837,2.7867,2.7904,2.7957,2.8001,2.8022,2.8065,2.8092,2.8089,2.8102,2.81,2.8104,2.8027,2.8012,2.8104,2.8104,2.8104,2.8104,2.8104,2.8104,2.7649,2.7711,2.7719,2.7792,2.7812,2.7863,2.7884,2.7911,2.7935,2.7995,2.8031,2.8045,2.8071,2.8115,2.8153,2.8158,2.8173,2.8188,2.8191,2.8119,2.8109,2.81,2.8086,2.8192,2.8192,2.8264,2.8265,2.8266]}]]